Wind_Gust
21 22 22 24 24 24 24 23 24 25 24 24 24 25 24 25 25 25 25 25 26 26 27 27 28 28 29 29 30 31 31 31 30 32 32 32 33 29 29 31 30 27 24 19 13 18 19 20 20 20 18 16 14 16 17 16 18 16 18 16 16 15 14 15 20 19 16 15 17 19 20 17 17 17 17 16 16 16 9 11 15 14 17 18 20
23 23 22 24 24 25 25 23 25 25 24 23 25 25 24 25 24 24 23 25 25 27 27 26 26 28 28 29 31 30 31 32 35 33 34 34 32 30 31 33 30 27 25 17 10 18 16 15 17 17 17 19 16 15 17 18 15 15 16 16 14 14 14 17 19 18 19 17 17 17 19 18 16 16 17 14 14 12 13 13 13 11 15 14 20
25 24 24 23 23 22 21 21 22 22 22 21 23 24 23 23 24 24 25 24 25 26 26 27 28 28 29 29 30 30 32 31 32 33 32 33 34 32 31 32 30 28 29 18 15 14 17 14 15 16 17 17 14 17 19 19 15 18 15 14 12 14 14 15 17 18 18 18 17 19 19 19 15 18 16 14 14 12 12 12 12 11 10 14 16
25 24 23 22 21 20 21 21 21 22 22 21 23 22 24 23 24 24 24 24 27 25 26 28 27 28 28 29 29 30 32 32 33 35 34 34 34 35 33 32 29 27 27 17 14 13 17 14 15 13 14 17 18 13 14 14 17 18 11 13 12 15 14 14 14 15 17 19 18 18 19 19 17 16 15 14 15 14 13 9 9 10 9 10 16
23 22 21 20 20 20 20 20 21 22 22 22 23 23 23 23 24 25 25 25 26 25 26 26 27 28 29 29 29 29 31 33 36 39 37 36 34 33 32 29 28 26 24 22 15 13 13 15 15 13 17 19 14 13 15 19 18 11 13 13 14 14 14 14 13 15 15 16 17 15 17 17 15 13 15 15 15 13 12 12 11 9 8 7 10
21 20 20 20 20 20 20 20 21 22 22 22 23 23 24 24 25 24 25 26 26 26 27 28 28 29 29 29 29 29 31 34 37 38 39 37 34 33 31 27 25 22 23 21 21 18 16 15 15 16 16 16 15 14 17 18 19 13 16 18 16 15 15 13 14 13 13 15 15 17 16 17 16 15 15 14 13 13 12 12 11 9 9 9 8
20 20 20 19 20 20 20 21 21 21 22 22 23 24 24 24 25 26 25 26 26 27 27 28 27 27 28 28 28 29 31 34 37 38 38 36 33 32 30 28 24 19 18 20 17 14 13 16 16 16 16 15 14 14 14 15 15 12 14 15 19 18 15 13 15 14 15 17 17 15 16 15 14 14 16 14 12 13 10 10 12 14 8 8 10
19 20 20 19 20 21 20 20 21 22 23 23 23 24 24 25 25 25 26 26 26 27 28 28 27 27 28 28 28 27 31 35 37 39 37 34 33 31 29 26 21 17 19 22 23 20 16 14 15 15 16 13 13 14 15 16 18 18 13 16 19 18 18 17 16 17 18 17 15 15 14 15 14 13 15 12 13 12 12 11 11 11 15 11 10
20 21 20 20 21 21 21 20 21 22 24 23 24 25 25 25 25 26 26 26 27 27 27 28 28 28 28 27 27 26 31 33 35 36 35 34 33 29 28 26 21 17 18 18 19 20 19 17 14 12 14 12 13 13 12 12 15 17 18 15 16 18 18 15 19 19 18 15 14 13 15 15 14 13 16 13 12 12 12 9 10 8 9 11 17
20 21 21 21 22 23 23 21 23 23 24 25 25 25 26 26 26 27 27 27 27 27 27 28 28 30 28 29 27 26 29 33 36 38 31 36 32 30 27 23 22 19 20 18 19 18 19 19 18 22 13 12 13 12 13 14 13 13 13 14 16 18 15 16 16 18 19 16 15 15 15 14 14 12 11 11 13 9 9 9 13 8 8 10 12
20 21 22 22 22 23 23 23 24 25 24 24 25 26 27 27 27 27 27 27 27 27 27 29 28 30 28 28 28 26 27 32 38 35 35 37 35 28 26 23 22 21 19 18 17 20 21 20 17 18 13 13 14 8 10 11 10 11 12 13 12 14 15 15 15 15 16 15 16 15 13 12 12 12 10 12 10 11 9 8 7 8 8 12 17
21 21 21 22 23 24 24 24 25 25 25 26 26 26 26 27 28 28 28 27 27 27 27 28 28 30 28 28 27 27 27 28 35 37 36 36 34 32 24 23 22 20 20 19 17 17 19 20 19 17 16 15 16 13 10 9 8 7 10 12 13 11 9 13 12 14 14 14 16 13 12 12 13 11 11 10 11 8 7 7 8 10 11 15 11
21 21 22 23 23 24 24 25 25 25 25 26 26 26 28 28 29 29 28 27 26 27 28 28 27 30 29 28 28 28 28 30 33 37 36 36 35 31 24 23 21 21 20 21 19 18 17 18 20 19 21 20 17 18 20 14 8 7 8 9 10 9 8 7 7 13 15 14 14 11 11 11 13 13 11 10 9 8 8 12 9 9 10 13 14
20 22 22 23 23 23 24 24 25 25 25 26 26 27 28 29 29 28 27 27 28 28 28 28 27 29 29 28 27 28 27 29 32 36 36 37 36 28 25 25 22 20 20 20 18 17 18 18 19 19 21 19 22 20 19 20 19 13 12 13 14 13 11 13 14 16 13 14 19 17 16 13 14 13 14 12 12 12 13 11 10 9 9 16 12
21 21 22 23 23 23 24 24 25 25 26 26 26 27 28 29 30 30 29 28 29 29 28 27 27 27 28 27 26 27 24 29 31 35 35 36 36 23 27 27 22 19 19 18 18 17 18 22 19 19 19 18 23 21 19 20 18 17 10 14 14 15 16 16 15 15 17 15 15 19 20 17 15 15 15 14 14 15 16 16 11 14 10 10 11
21 22 22 23 23 23 24 24 24 25 26 26 27 28 29 30 31 30 30 29 28 28 27 27 27 28 28 27 27 27 26 27 32 35 35 36 33 29 28 25 24 20 21 20 19 18 17 21 21 20 20 18 23 24 21 21 20 18 11 12 12 13 14 9 7 10 15 16 15 15 14 15 11 15 14 11 10 9 9 10 7 8 13 16 13
22 22 22 22 23 23 24 24 24 25 25 26 27 28 29 29 29 30 29 29 29 29 28 28 28 27 27 27 28 27 26 25 31 33 35 37 32 32 29 26 25 23 21 18 19 19 20 23 23 20 21 19 22 22 22 19 21 22 14 11 12 14 14 13 12 12 12 14 13 12 12 13 14 13 13 14 12 9 9 10 9 9 10 11 11
22 22 22 22 22 22 23 24 24 24 25 27 28 28 27 27 28 29 29 29 29 29 29 27 26 25 26 28 31 28 28 25 29 31 34 33 32 31 27 26 24 22 21 18 19 20 21 26 25 22 22 21 19 19 21 20 21 22 22 20 13 13 13 14 16 15 11 12 11 10 10 10 10 10 11 11 10 8 11 18 13 15 13 11 10
22 22 21 21 21 21 22 23 23 23 25 26 27 27 27 27 27 28 28 28 29 28 29 28 27 27 27 27 25 29 29 26 26 30 33 33 36 31 28 25 26 25 23 18 19 21 21 19 23 23 21 20 19 18 19 19 19 20 21 20 19 15 14 12 16 17 16 16 16 16 14 10 14 13 12 6 7 6 10 9 14 16 16 15 14
20 20 20 19 19 21 20 21 22 23 25 25 25 26 25 26 27 27 27 28 29 29 29 28 27 27 26 26 28 29 30 29 31 30 31 32 31 34 25 26 27 26 24 20 23 21 21 20 18 23 23 20 18 18 18 17 19 19 20 19 20 18 20 13 13 12 15 15 16 15 15 15 15 15 14 12 10 8 8 11 13 14 17 17 19
18 19 18 19 19 20 20 21 22 22 23 23 24 24 24 25 26 26 26 27 28 29 29 28 28 27 27 26 27 27 31 30 31 28 31 32 33 30 28 27 26 25 23 22 22 20 22 22 19 19 21 19 17 18 17 17 16 18 19 17 16 16 15 14 14 10 12 11 12 13 15 15 14 15 15 15 14 11 10 12 13 11 15 20 22
17 18 18 19 19 19 19 20 20 21 22 23 23 23 23 25 26 26 27 27 27 28 28 28 28 28 27 27 27 28 27 25 31 27 29 31 31 32 31 27 26 25 24 23 25 24 23 22 20 20 18 16 17 16 17 17 15 15 15 8 13 17 20 18 14 15 13 14 15 14 14 14 15 16 15 14 12 11 10 11 10 11 12 15 18
17 17 17 18 18 19 19 20 21 22 22 22 22 23 23 24 25 26 26 26 27 27 28 29 29 30 29 29 29 30 30 29 24 31 30 29 30 29 28 25 26 27 25 24 23 23 19 19 20 22 21 19 17 17 16 17 12 12 14 15 14 16 14 17 15 16 14 14 13 13 13 14 15 16 15 13 13 13 13 10 10 10 11 12 13
16 16 15 17 18 20 19 20 21 20 19 21 22 23 23 23 24 27 27 27 28 28 29 29 30 29 30 30 30 30 31 32 23 26 33 30 28 28 28 28 27 25 23 22 24 23 21 20 18 21 26 26 23 21 19 15 14 13 13 15 15 12 17 17 14 13 11 13 14 15 15 15 15 15 15 15 12 13 12 10 10 11 11 13 15
15 15 16 17 17 18 20 19 19 21 20 20 23 24 23 23 25 25 26 27 27 27 28 28 29 29 29 29 29 31 31 32 32 30 30 29 28 27 28 27 28 26 24 22 20 20 20 23 25 24 25 27 25 24 18 20 23 20 18 15 13 18 16 10 11 12 13 14 14 14 15 18 19 17 16 15 13 11 10 11 11 13 14 16 16
14 16 16 16 17 19 20 18 18 21 20 21 21 23 24 24 24 25 26 26 26 26 27 28 28 28 27 27 29 29 31 30 33 35 29 30 28 27 26 24 27 26 24 24 17 20 22 23 26 23 22 28 26 25 23 27 26 29 23 16 18 11 13 17 14 15 14 13 14 14 15 16 16 15 12 11 12 11 11 13 15 16 15 15 15
14 15 16 15 16 18 19 20 19 19 20 21 23 24 25 23 23 23 25 26 27 26 27 26 25 26 26 27 28 29 31 30 32 33 34 36 35 34 35 32 23 20 26 25 20 24 26 26 22 19 22 26 25 22 22 24 26 28 28 23 15 15 12 16 19 19 16 13 14 15 15 15 16 14 13 11 10 12 12 13 14 15 14 13 13
15 16 15 16 16 15 18 9 14 19 19 19 20 22 24 23 22 23 24 25 26 27 27 25 25 24 25 26 27 29 31 31 32 36 34 35 34 33 33 31 30 26 27 26 22 23 23 16 22 26 29 31 29 26 26 25 24 26 30 30 30 20 15 9 10 14 15 16 13 14 14 13 14 12 12 13 13 12 11 12 11 12 11 13 13
13 14 15 17 17 16 15 17 18 17 18 18 18 19 20 22 23 19 18 19 19 22 26 25 24 22 22 24 26 29 30 31 33 23 31 23 30 31 32 34 31 27 23 23 21 20 22 28 28 29 28 29 26 29 28 29 29 28 27 29 28 31 31 22 14 12 13 16 13 13 13 13 13 12 12 13 13 12 10 10 8 9 10 11 11
13 14 16 17 19 17 16 16 16 17 19 20 19 16 8 11 14 20 20 12 9 6 8 21 22 24 23 22 21 23 27 28 25 28 28 27 26 22 19 25 25 27 25 23 19 24 26 25 26 27 28 27 27 29 30 30 30 30 29 23 29 30 32 29 31 30 23 14 12 12 12 12 13 13 13 14 14 12 11 9 10 9 11 10 12
14 15 16 16 18 19 16 17 17 17 16 17 16 18 16 16 13 13 12 15 11 8 4 8 11 12 23 25 20 11 16 21 26 27 29 27 26 23 19 25 28 25 23 24 27 29 28 27 25 25 24 24 24 25 28 29 29 30 30 30 27 28 30 27 30 29 26 21 10 11 11 12 13 14 14 14 14 13 14 11 10 10 11 10 13
15 15 15 15 15 17 17 16 16 17 18 18 19 17 19 19 16 12 12 16 14 12 10 8 10 10 14 20 22 26 25 25 25 26 27 27 27 24 18 23 25 26 19 16 26 28 27 25 24 25 25 25 22 22 23 28 28 29 31 31 30 29 28 27 31 28 29 31 28 9 10 11 13 13 14 14 12 13 13 12 11 11 11 9 12
15 15 15 15 15 15 16 17 17 18 18 20 19 19 21 19 21 20 17 15 16 15 11 8 11 11 13 15 15 13 14 17 22 24 27 27 28 26 17 19 23 25 20 31 29 27 26 24 24 23 24 24 23 22 23 23 25 27 29 29 29 30 29 29 29 29 30 32 31 24 14 10 11 12 12 14 13 12 12 11 10 10 10 11 13
15 17 16 14 15 16 16 16 17 17 17 18 18 20 19 20 22 20 21 22 17 13 13 12 16 16 13 15 21 19 18 19 19 22 25 26 26 26 19 21 15 22 27 33 31 28 26 24 23 23 22 18 20 20 20 22 24 26 28 29 29 30 30 29 28 28 28 30 29 32 31 26 9 12 13 14 12 10 12 11 10 11 12 12 14
14 11 5 10 14 15 16 16 16 17 17 17 18 18 18 18 18 19 22 22 20 21 22 21 16 17 22 18 21 19 16 17 17 18 22 24 25 22 14 27 32 33 34 33 30 28 27 26 25 24 23 23 24 22 21 22 25 25 27 28 29 31 30 30 29 28 28 29 29 30 29 29 29 27 15 12 12 11 11 11 11 10 11 11 13
12 13 13 12 14 14 15 16 16 17 16 17 17 16 17 18 18 19 18 18 19 21 19 21 22 12 15 13 19 18 20 14 13 14 17 22 25 22 33 34 32 33 30 30 29 27 26 25 24 24 23 23 23 23 22 21 23 24 25 25 27 30 31 30 29 29 28 28 27 30 27 28 29 28 31 27 11 11 11 10 10 11 15 11 12
12 13 13 14 14 14 13 13 15 15 10 15 15 17 17 16 18 18 18 19 20 20 20 21 23 22 18 21 24 19 18 13 13 14 15 16 20 28 31 30 28 28 28 28 27 27 26 25 24 24 24 24 23 22 23 22 21 23 20 26 25 26 28 28 28 26 29 28 29 28 26 27 29 27 29 27 24 14 11 11 9 12 14 15 7
15 15 15 15 12 11 12 13 13 6 13 14 16 17 17 17 18 18 18 19 20 20 21 22 15 25 28 29 22 23 26 13 12 12 14 15 25 30 30 27 27 27 27 26 26 25 25 25 24 24 24 23 23 24 24 23 23 22 23 24 24 23 27 28 27 29 28 27 28 29 28 28 29 29 27 27 24 26 26 12 11 15 11 10 12
15 8 5 10 8 14 13 13 13 14 14 14 15 15 16 17 17 18 19 19 19 19 20 21 22 24 26 27 27 24 22 26 27 28 27 27 25 26 28 27 26 26 25 25 25 25 25 25 24 23 23 23 23 23 22 23 23 24 24 24 24 24 28 26 29 28 27 27 27 27 28 28 28 29 26 24 25 26 27 25 12 12 14 12 15
13 13 10 9 9 12 12 11 13 13 14 15 15 15 16 17 17 18 19 19 19 19 20 20 21 22 25 27 27 28 26 25 24 25 25 25 25 25 25 25 26 26 26 26 25 25 24 25 25 25 24 24 24 24 22 23 23 22 22 23 24 24 23 23 24 26 27 27 25 25 25 27 28 26 27 23 25 25 25 25 20 11 13 14 13
14 14 7 7 8 9 10 12 13 14 14 15 14 15 16 15 16 16 18 17 18 18 18 18 19 19 20 23 20 23 22 23 23 23 23 24 23 24 24 24 24 24 25 25 25 25 25 24 24 25 25 24 25 23 22 22 22 23 23 22 22 22 22 21 21 23 25 24 25 25 25 24 24 24 25 24 20 23 22 24 22 16 11 13 13
14 14 12 12 12 11 12 11 11 11 10 12 15 16 14 15 15 15 16 17 16 17 17 18 18 18 12 12 16 19 20 21 21 21 22 22 23 23 23 23 23 23 23 23 24 25 25 24 24 24 24 24 25 25 24 23 23 23 23 23 23 23 24 22 22 22 23 23 22 23 23 24 24 24 23 16 22 24 24 25 27 26 19 16 14
11 11 11 10 10 11 11 12 12 13 13 14 14 8 11 14 15 14 14 15 16 17 17 18 18 18 17 9 14 13 20 21 14 21 22 22 22 22 22 23 23 22 22 21 21 23 23 23 23 23 24 23 24 24 25 24 23 22 22 22 23 23 23 23 22 22 22 22 22 22 23 22 23 22 22 21 23 22 24 24 25 24 25 22 14
12 10 10 10 10 11 10 10 11 11 12 9 8 12 14 13 14 14 15 15 16 16 17 17 18 19 19 19 17 20 21 21 22 22 22 21 22 22 22 22 22 21 21 22 22 21 21 21 22 21 21 23 23 22 22 22 23 23 23 24 23 23 24 24 24 24 23 22 22 21 21 21 21 21 21 21 23 22 23 24 24 24 24 23 22
12 12 12 12 10 9 10 10 9 10 9 10 12 12 12 13 14 15 16 16 15 16 16 16 17 18 18 19 20 21 20 21 20 20 21 22 21 22 22 21 21 21 21 21 21 21 20 20 20 21 21 21 22 21 21 21 21 21 22 23 23 24 25 26 25 23 22 21 21 21 20 20 19 20 20 22 21 23 22 21 20 17 21 20 22
12 11 10 11 10 9 9 10 8 9 10 11 11 12 12 13 13 13 15 15 15 16 16 16 16 17 17 18 19 18 20 19 20 20 20 20 21 21 21 21 21 20 20 21 21 20 21 21 21 21 22 22 22 22 22 21 22 22 20 20 21 22 24 26 25 23 21 20 21 20 19 18 18 18 18 22 22 21 23 23 23 19 20 20 22
10 11 11 10 11 10 10 9 10 10 10 11 11 11 12 12 13 12 11 13 14 14 15 16 16 16 17 18 18 18 18 18 19 19 19 20 20 20 21 21 21 20 20 20 20 21 20 21 21 21 22 23 22 22 23 22 22 23 22 23 22 25 25 29 28 22 21 21 20 19 18 18 19 19 19 19 19 21 19 22 20 22 22 19 21
12 12 11 10 11 11 11 11 13 9 9 10 11 11 11 11 11 11 13 13 13 14 14 15 15 16 15 16 17 17 18 18 18 18 18 19 19 20 19 20 20 20 20 19 20 20 20 21 21 21 22 23 24 23 23 23 22 24 23 24 24 30 35 30 26 22 21 21 19 18 18 18 17 17 17 18 20 20 20 20 19 19 21 21 20
12 12 12 12 10 11 11 10 8 9 10 8 10 9 10 10 11 12 12 12 13 13 14 15 15 15 15 15 16 16 17 16 17 17 18 18 18 19 19 19 18 19 19 20 20 20 20 20 21 21 22 22 24 24 23 23 24 24 24 24 30 34 33 32 27 26 25 22 17 17 16 16 17 19 18 18 19 19 18 21 20 19 21 19 20
11 11 11 12 11 9 9 8 8 9 8 8 9 9 9 9 10 11 12 13 12 13 14 13 14 15 15 15 15 16 17 17 17 17 17 17 18 18 19 18 18 19 18 19 19 19 20 19 20 21 21 21 24 25 24 24 24 25 26 30 29 33 33 33 28 27 28 21 20 17 19 18 18 17 19 18 18 20 18 17 17 18 19 19 18
11 11 11 11 10 10 10 10 9 8 9 9 9 9 9 10 9 10 12 12 12 13 13 14 14 14 14 14 14 15 16 16 16 17 16 17 17 17 18 18 18 18 17 18 18 18 18 18 19 19 18 18 21 23 23 24 25 29 26 27 30 32 33 32 33 27 33 26 20 20 21 21 19 19 18 17 18 18 20 19 17 16 16 17 17
Wind_Speed
6 6 6 8 8 10 10 9 10 10 11 11 10 10 10 10 9 10 10 10 11 11 11 12 12 11 12 13 12 13 13 15 14 14 13 14 13 13 14 14 15 13 13 11 7 1 1 3 5 3 2 4 5 3 4 4 3 3 4 5 1 6 3 2 9 7 3 4 6 6 6 5 4 8 9 5 4 3 4 6 7 6 6 6 5
7 7 7 7 9 9 9 9 10 10 10 10 10 11 10 10 10 11 9 11 10 12 12 11 11 12 11 13 13 14 15 15 15 16 16 17 17 13 12 15 15 15 14 11 3 4 5 4 4 4 3 7 7 7 5 3 3 3 2 3 1 5 6 4 8 7 7 4 6 6 5 4 3 7 9 8 5 5 4 7 4 5 8 7 6
8 7 7 8 9 9 9 9 10 10 10 9 11 11 10 10 11 11 11 10 10 11 11 11 12 12 11 12 14 14 15 15 16 15 15 17 18 14 13 14 14 14 17 10 4 2 2 5 6 6 6 8 7 7 6 5 7 6 5 1 3 2 4 6 8 7 8 5 6 7 5 4 3 7 10 7 7 6 5 5 4 3 5 8 6
8 8 8 9 9 9 9 9 10 10 10 9 11 11 11 10 11 11 11 10 12 11 11 13 12 12 12 13 14 14 15 15 15 15 16 15 15 16 14 14 13 13 14 11 6 3 5 7 9 8 7 10 9 7 6 6 5 6 2 3 4 4 7 8 5 8 7 7 5 6 5 4 2 5 7 5 7 5 4 3 4 2 3 5 9
9 9 9 9 9 9 9 9 10 10 11 10 11 12 11 11 11 12 12 12 12 11 12 12 12 13 12 13 14 15 14 15 17 17 16 15 15 14 14 13 13 13 13 13 10 8 8 9 7 7 8 8 8 8 7 7 6 1 5 2 3 3 2 2 7 5 8 8 5 5 4 4 4 5 6 4 2 4 3 4 4 2 5 4 5
8 8 8 9 9 10 9 9 10 11 11 10 12 12 11 12 11 11 12 12 12 11 12 11 11 12 13 12 14 14 14 14 16 16 16 17 16 14 13 13 12 12 11 12 13 11 10 9 9 9 10 9 6 7 7 7 9 6 2 2 5 6 5 6 4 6 7 6 7 5 3 4 2 5 4 6 4 4 5 4 3 4 0 2 2
8 8 8 8 9 9 9 10 9 10 10 10 10 11 12 11 13 13 12 12 12 12 11 11 10 10 12 11 13 14 15 15 15 16 17 17 16 15 13 11 13 11 10 9 8 7 6 6 10 10 8 7 8 8 8 8 8 7 5 6 5 4 7 1 5 5 6 6 7 5 4 2 4 5 6 5 3 1 1 1 1 3 4 3 3
8 8 8 8 9 9 9 9 9 10 10 10 11 11 12 13 13 11 12 12 12 13 13 12 14 13 12 10 13 13 14 14 17 18 16 16 15 14 13 11 12 9 10 10 10 11 9 8 7 7 6 5 5 5 6 6 4 7 7 5 5 8 8 8 1 5 5 4 5 5 2 3 3 3 6 3 2 1 1 3 2 4 2 1 3
8 9 8 8 9 9 8 8 9 10 11 11 12 12 12 12 12 12 12 11 10 11 13 13 14 14 13 12 13 12 11 12 11 15 16 18 15 13 12 12 12 9 9 9 9 11 11 10 8 6 5 6 6 5 6 5 5 6 6 5 4 6 6 4 8 4 5 5 4 3 3 3 3 5 3 2 1 5 2 1 2 2 4 2 2
8 9 9 9 9 10 10 9 10 10 11 11 12 12 12 12 12 12 13 12 11 10 10 11 11 12 13 14 12 11 11 10 20 28 23 17 15 12 11 10 13 10 10 10 10 11 11 10 10 18 10 5 5 7 8 8 7 5 4 3 5 5 4 5 5 4 2 5 5 5 5 4 2 5 3 2 5 3 2 1 1 2 2 6 5
9 8 10 10 9 10 10 10 10 12 11 11 11 13 13 12 11 12 11 12 12 13 10 12 12 12 13 12 11 10 10 13 27 26 27 28 17 12 10 11 13 12 11 10 9 9 10 10 9 12 9 11 9 8 9 7 6 9 9 7 4 5 7 5 3 6 4 1 4 5 4 4 5 4 2 3 2 2 1 2 1 3 4 1 2
9 9 10 9 10 11 10 11 12 11 12 13 13 12 12 13 12 11 11 12 12 12 12 12 12 11 10 12 10 10 10 21 27 27 27 27 24 13 11 10 11 11 11 11 9 9 10 10 10 8 9 10 10 8 7 5 4 4 8 7 5 9 8 3 1 4 5 4 3 2 4 5 5 3 4 3 4 2 3 4 4 5 6 7 4
9 9 10 10 11 10 11 11 11 12 12 12 11 11 12 13 13 12 13 12 10 10 11 10 11 11 11 12 9 10 10 23 25 28 27 27 26 18 11 10 11 12 12 12 11 9 9 10 10 9 8 16 11 9 9 9 6 1 4 6 5 4 4 3 2 2 3 8 5 4 3 6 5 3 4 4 4 4 3 6 4 4 3 4 2
8 9 10 10 11 10 10 11 11 11 11 11 11 12 12 12 11 10 10 10 11 11 11 12 12 11 12 12 10 9 10 19 25 28 28 28 26 17 11 12 11 11 12 12 10 10 10 10 10 10 10 12 12 12 10 9 10 7 1 0 4 6 10 12 12 13 10 7 8 7 8 7 7 5 5 5 7 6 7 4 3 3 3 2 2
9 9 9 10 10 10 11 11 11 11 11 11 11 12 12 11 12 10 9 10 11 11 12 12 11 11 12 12 11 10 10 22 24 27 27 28 26 16 12 12 11 11 11 11 10 10 11 11 11 10 10 10 9 12 11 12 10 9 5 9 7 6 7 8 8 6 5 6 7 7 7 7 6 6 6 8 6 4 3 3 2 1 3 1 2
9 9 9 10 10 10 10 10 10 10 11 11 12 12 12 12 12 10 9 9 10 11 11 10 11 12 12 13 12 12 11 22 25 26 27 27 25 13 13 12 12 11 11 10 11 10 9 11 11 11 11 10 15 19 15 12 9 11 3 5 6 6 5 2 3 6 7 7 6 6 5 6 8 7 6 4 3 3 2 2 0 1 2 2 3
9 9 9 9 10 10 10 10 10 9 10 11 11 11 11 11 10 9 9 10 10 11 10 11 11 12 14 13 14 12 10 17 24 25 26 27 20 13 13 12 11 11 12 10 10 11 11 10 9 9 9 10 15 17 17 15 10 13 9 5 5 4 4 3 5 9 9 10 9 9 10 12 12 11 11 11 8 4 2 1 3 1 2 4 1
9 9 9 9 9 10 10 10 10 10 9 11 10 10 10 9 9 9 10 10 11 11 11 11 12 12 13 13 14 12 12 15 22 23 25 25 21 13 11 11 12 11 11 10 10 10 12 18 14 10 9 9 14 15 17 14 10 11 10 11 6 4 4 3 2 4 5 9 9 9 9 9 9 9 10 10 9 6 4 5 6 9 7 1 2
9 9 9 9 9 9 9 8 9 9 10 9 9 9 9 10 9 9 9 10 11 10 11 10 11 11 11 12 19 15 13 13 20 22 25 24 20 12 11 10 11 11 11 9 10 9 11 11 16 14 12 11 15 15 16 13 9 9 9 8 8 7 7 5 3 2 1 3 3 3 4 5 4 4 4 6 6 4 2 2 6 6 6 6 5
8 8 8 8 7 8 7 8 7 8 9 9 8 8 9 9 10 10 10 10 10 10 11 10 12 12 11 12 12 13 13 12 17 23 24 24 24 16 11 10 12 12 11 9 11 11 11 10 10 16 17 16 14 15 15 14 9 7 7 7 7 8 8 7 1 3 2 2 2 2 3 2 4 3 2 2 2 1 5 6 7 7 7 7 8
7 7 7 8 8 8 7 8 8 7 8 8 8 8 8 9 10 10 10 9 10 10 11 10 10 10 10 11 11 11 11 12 15 23 23 24 24 20 11 11 12 10 9 9 10 11 11 11 9 14 17 15 14 15 14 14 11 6 6 5 4 7 8 4 8 7 4 3 4 3 4 3 3 3 3 1 3 0 4 7 7 7 6 6 3
6 7 7 7 8 8 7 7 6 6 8 8 8 8 9 10 9 10 8 8 10 11 11 10 10 10 9 10 11 10 13 18 14 20 23 25 23 22 13 12 13 10 10 10 11 11 10 9 10 14 15 13 14 14 14 14 13 5 7 7 10 12 9 5 5 7 1 3 4 3 3 4 3 4 6 5 0 5 6 6 6 7 6 6 5
6 6 6 7 6 7 5 6 7 7 7 8 8 8 8 9 9 9 10 10 10 11 11 10 9 9 10 9 10 13 11 11 17 19 21 22 22 21 22 16 20 13 8 10 10 9 9 10 11 17 18 17 15 15 13 14 10 7 11 12 11 13 10 6 7 6 5 4 0 3 4 4 3 4 2 3 7 8 7 5 5 4 5 6 5
6 6 5 6 6 7 7 6 7 5 7 7 7 8 8 8 9 9 9 9 9 10 10 10 10 10 11 11 10 11 12 11 13 18 17 21 20 21 22 22 21 13 10 9 9 10 10 11 10 16 21 21 19 18 17 13 9 12 12 13 13 10 5 5 6 7 7 6 7 1 2 2 5 5 8 8 6 6 6 5 4 5 5 5 4
5 5 5 6 4 6 5 4 5 6 6 7 7 7 8 9 8 9 9 9 9 9 9 10 9 10 10 11 10 11 11 11 12 14 19 18 18 20 21 21 21 20 13 10 8 10 12 15 17 17 20 21 20 20 15 18 22 19 16 14 10 5 5 5 3 2 4 3 1 1 3 10 8 5 4 5 5 6 5 4 4 4 4 3 4
5 5 5 4 4 5 7 6 4 5 5 6 7 7 7 9 8 8 8 8 8 9 9 9 9 9 10 10 10 11 11 12 12 12 13 16 15 19 20 19 20 20 17 13 13 17 17 17 18 18 18 19 14 13 12 15 21 24 21 13 5 5 4 6 6 7 8 6 2 1 7 5 6 6 3 3 3 6 5 2 2 1 1 3 6
4 4 4 4 4 4 5 5 5 4 4 5 6 6 6 7 7 8 7 7 8 9 9 9 9 9 9 10 10 11 11 11 11 11 11 11 11 13 14 14 17 16 14 12 12 13 14 15 12 14 15 21 19 17 17 18 16 13 13 13 8 3 5 3 4 5 8 7 7 8 6 5 3 3 4 2 3 6 5 4 3 4 3 5 6
4 4 5 4 4 4 4 4 4 4 4 4 5 5 6 7 6 6 6 6 6 7 9 9 9 9 9 9 9 10 10 10 10 10 10 10 10 11 12 13 13 12 12 12 11 12 11 11 15 13 15 16 15 13 13 12 11 13 14 13 14 14 12 7 6 5 5 7 5 6 5 5 6 1 1 2 3 3 4 4 3 5 3 6 5
4 5 5 4 4 3 4 4 4 3 4 4 6 5 5 5 5 6 6 5 5 5 6 7 8 8 8 8 10 10 10 11 11 12 12 12 9 8 10 10 10 11 13 15 11 10 11 14 14 14 14 12 12 14 13 14 13 13 13 15 14 12 13 13 9 7 6 7 7 6 6 2 3 1 1 2 4 2 2 2 0 2 4 4 6
4 5 5 4 4 3 4 3 4 4 4 4 7 5 7 9 8 5 5 6 8 5 5 5 5 6 8 7 6 6 8 7 13 17 17 15 12 11 15 20 18 14 17 15 11 11 12 12 12 13 13 13 12 13 15 13 14 13 13 14 14 14 14 13 14 15 14 8 3 5 2 3 0 0 2 6 1 1 6 6 3 4 1 1 5
4 4 4 4 4 3 4 4 4 4 4 5 4 5 5 5 12 10 10 7 5 4 1 1 5 7 7 6 6 3 7 12 14 15 16 17 12 9 15 19 20 16 16 11 12 13 13 13 12 12 12 12 11 11 11 14 14 13 13 11 11 14 14 13 14 14 13 12 7 1 2 4 2 1 2 3 1 2 3 2 1 4 5 2 7
4 4 3 3 3 4 4 4 4 4 5 5 5 5 4 4 4 7 5 6 5 3 3 3 5 8 10 9 7 7 10 13 15 16 16 15 14 8 12 19 20 19 15 12 12 12 12 12 11 12 11 11 10 10 9 10 12 13 13 13 12 11 13 14 14 13 12 14 15 6 3 1 3 2 4 6 4 2 4 3 3 3 6 1 5
4 4 3 3 3 4 5 4 4 4 5 5 5 5 5 6 4 4 1 1 2 3 5 5 6 7 9 12 12 9 9 10 13 16 19 19 15 10 8 16 19 18 16 14 12 12 12 11 11 10 11 10 10 9 9 9 10 10 12 12 12 12 11 12 13 11 12 12 12 13 8 3 3 3 4 1 0 3 3 3 4 5 1 4 5
6 4 3 3 4 4 4 4 4 4 3 4 4 4 5 4 4 5 3 3 3 4 6 8 9 6 6 12 13 11 12 11 11 13 15 17 17 15 9 8 12 18 17 13 12 12 11 11 11 11 10 8 10 9 8 9 9 8 8 11 12 11 12 11 12 13 13 14 13 11 14 14 2 1 2 0 2 2 2 3 2 1 1 5 4
6 4 1 4 4 4 5 5 5 4 3 4 4 4 4 4 4 4 5 6 5 3 4 3 1 13 10 9 14 14 14 11 10 11 13 15 14 12 11 9 10 10 12 12 11 11 11 11 11 11 11 10 10 9 8 9 9 10 9 9 11 13 12 12 12 12 12 12 11 13 13 10 13 15 8 1 2 3 1 2 1 1 2 5 3
4 4 4 3 5 4 5 5 4 3 3 3 3 4 3 4 4 4 5 6 4 5 5 6 6 9 13 12 15 14 16 10 7 10 12 15 14 13 10 11 10 10 10 11 10 10 10 10 10 10 10 10 10 9 9 9 9 8 10 10 10 12 13 12 12 12 12 10 11 14 12 13 14 12 11 15 4 2 2 1 5 6 6 5 1
3 4 4 4 4 4 4 4 3 1 3 3 4 4 3 4 4 4 5 5 5 4 5 6 6 7 8 7 11 14 14 10 12 13 12 13 14 10 9 9 9 9 10 9 10 9 10 10 10 10 11 11 10 10 10 9 9 9 10 8 9 9 11 12 12 11 11 11 12 11 12 12 11 11 13 11 13 7 6 3 5 4 7 5 4
6 5 5 4 3 2 3 3 3 1 2 3 4 4 4 4 4 5 4 5 5 5 5 6 7 7 9 9 11 10 8 9 10 9 9 11 9 9 9 8 9 9 9 9 9 8 8 9 9 10 10 10 10 10 10 10 10 10 9 10 10 9 15 11 14 12 12 11 11 11 11 11 11 11 11 12 10 12 14 6 5 3 3 2 3
5 5 5 4 3 4 3 3 3 3 3 3 4 4 4 4 5 4 5 4 5 5 5 5 6 6 7 7 7 9 8 8 8 8 9 8 9 8 9 8 8 8 8 8 8 8 8 8 8 8 8 8 9 9 9 9 9 9 11 10 10 10 11 9 11 12 12 11 11 11 10 10 11 10 11 10 11 12 11 14 4 5 2 1 3
6 5 3 2 1 3 2 3 2 4 3 3 4 3 4 4 4 4 4 4 5 5 5 5 5 6 7 8 8 8 7 8 7 8 8 8 8 8 8 8 8 8 8 8 7 8 8 8 8 8 8 9 9 8 8 9 9 8 8 9 9 9 9 9 10 11 11 11 11 11 11 11 10 10 10 9 10 10 11 11 12 4 2 2 2
5 5 4 2 3 2 4 3 4 3 4 3 3 3 3 3 4 3 4 4 4 4 5 5 5 5 5 8 12 12 5 7 7 7 7 8 8 8 8 8 8 8 8 8 7 7 7 7 7 7 8 9 8 8 8 8 8 8 9 10 9 10 10 9 9 10 11 11 11 11 11 11 10 11 11 11 11 10 9 8 10 11 4 2 1
6 6 5 4 4 2 3 3 3 3 3 4 4 3 3 3 3 3 3 4 4 4 4 4 4 4 4 9 9 11 6 6 6 6 6 6 7 7 7 7 7 7 8 8 8 7 6 6 6 7 7 8 8 8 9 8 9 8 9 9 11 10 10 9 9 9 10 10 10 10 10 10 10 10 10 10 10 11 10 11 10 11 11 2 2
5 5 4 3 3 3 3 3 3 3 3 3 3 2 1 2 3 3 3 3 4 3 4 4 4 4 3 5 8 8 5 5 5 6 6 6 6 7 7 7 7 7 7 7 7 7 6 6 7 6 6 7 7 7 8 9 8 9 8 9 10 11 9 9 10 10 9 9 10 10 10 9 10 8 9 10 11 10 11 11 10 10 11 12 3
4 3 4 3 3 2 2 3 3 4 4 2 1 1 2 2 3 3 3 3 3 3 3 3 4 4 4 5 6 6 5 5 6 6 6 6 6 6 6 6 6 6 6 6 6 6 6 7 7 7 6 7 6 7 6 8 8 8 9 9 10 11 10 10 9 10 10 9 10 10 10 10 8 7 8 9 10 11 10 10 11 10 11 10 12
4 5 4 4 4 4 3 3 3 3 2 5 5 3 2 2 3 3 3 3 3 3 3 3 3 4 4 5 5 5 5 5 5 5 5 6 6 6 6 6 5 5 6 6 5 6 6 6 6 6 7 6 7 7 8 7 8 8 9 8 9 11 11 11 11 9 8 8 8 9 9 8 9 8 8 9 10 10 9 9 9 10 10 10 10
5 5 5 4 3 3 3 4 2 2 1 2 2 2 2 3 2 2 3 3 2 2 3 3 3 4 4 4 4 5 5 4 4 4 5 5 5 5 5 5 5 4 4 5 4 5 5 5 5 6 7 7 7 7 8 7 8 8 8 7 8 8 9 10 9 9 8 8 7 7 8 8 8 7 9 9 8 8 9 10 9 7 8 9 11
4 4 3 4 4 3 3 3 1 1 2 2 1 2 2 2 1 0 3 2 1 3 2 3 3 3 3 4 4 4 4 4 4 4 5 5 5 5 5 5 5 5 4 4 4 4 4 5 4 5 6 6 7 7 7 9 8 8 8 8 7 10 11 11 9 8 8 9 8 7 7 7 7 8 9 9 8 8 9 9 8 9 9 8 9
4 4 4 4 4 4 3 2 3 1 2 3 2 1 1 0 1 1 2 1 2 2 2 3 2 3 3 4 4 4 4 4 4 4 5 5 4 4 4 4 5 5 4 4 4 3 3 4 4 3 5 6 6 7 7 8 8 9 9 9 9 12 16 15 10 9 8 8 6 7 8 7 7 8 8 9 9 9 9 9 9 7 8 8 8
5 5 4 4 4 4 4 4 3 3 2 2 3 3 2 0 1 1 2 1 1 2 3 2 3 3 3 4 3 4 4 3 4 4 4 4 4 4 4 4 4 5 4 4 4 4 4 3 3 3 5 5 5 6 8 8 9 9 9 9 14 24 22 21 14 10 14 10 7 7 7 7 8 8 9 9 10 9 9 9 8 9 8 7 7
4 4 4 4 3 2 3 3 3 2 2 1 1 2 2 1 2 2 2 1 1 2 3 2 2 3 3 3 4 4 4 4 4 4 4 4 4 3 4 4 4 5 4 4 4 4 4 3 4 4 6 5 6 6 6 7 8 8 8 12 20 23 23 23 21 21 15 9 9 6 6 8 8 8 8 8 10 10 10 9 9 8 7 7 7
3 3 4 4 3 2 2 2 2 2 2 2 1 2 1 0 1 2 3 1 2 2 2 2 2 2 3 3 3 3 4 3 4 4 3 4 4 3 4 3 4 4 4 4 4 4 4 3 4 4 7 4 5 5 6 7 7 8 11 18 21 23 24 23 15 19 25 18 8 7 7 8 9 9 9 9 9 9 11 11 10 9 8 7 7
Wind_Direction
32 23 6 3 7 2 359 358 356 356 360 351 352 352 345 344 345 345 338 356 341 355 351 346 345 351 352 43 34 29 16 6 2 353 347 341 337 334 331 331 332 334 332 328 309 192 113 7 22 33 351 35 31 64 64 29 330 268 284 294 60 266 89 104 129 129 129 119 122 130 146 150 166 129 120 124 159 193 234 138 185 166 169 168 188
29 22 5 7 2 3 357 1 358 351 1 350 352 350 348 343 352 344 351 352 352 354 352 346 346 350 13 49 39 24 17 5 4 357 351 346 340 339 332 330 333 340 334 326 42 0 353 19 31 21 5 38 24 20 29 43 301 316 208 236 256 237 140 173 136 143 139 128 116 120 132 172 151 134 132 148 176 175 211 181 189 197 171 179 171
14 18 8 6 5 3 358 2 359 349 2 352 352 353 350 350 355 346 358 349 1 352 351 351 350 353 25 50 38 25 15 11 2 353 350 346 343 334 333 331 335 344 342 342 12 65 7 29 33 25 20 34 24 17 4 19 6 354 324 236 265 333 262 168 143 139 137 134 129 126 147 201 167 149 142 160 165 187 193 212 168 184 148 160 165
12 15 8 9 7 2 2 1 357 351 5 353 356 357 350 359 353 353 359 355 1 352 354 353 354 1 32 46 37 22 15 9 1 356 348 342 340 336 332 332 337 346 351 355 349 9 37 34 30 15 14 28 23 8 25 2 1 344 341 194 219 203 235 134 139 134 137 130 142 132 159 188 207 147 139 150 158 185 209 148 123 209 160 175 160
14 16 7 11 7 1 3 3 355 2 4 355 2 358 354 3 354 0 357 2 360 353 2 354 357 4 32 48 32 20 16 13 5 355 350 349 344 335 332 333 338 343 352 357 10 23 32 38 28 22 25 31 24 10 356 21 343 337 22 294 233 217 306 144 126 130 126 133 139 133 171 161 216 126 136 135 159 183 154 155 196 170 183 211 148
19 15 11 12 4 4 4 5 359 10 2 2 5 358 2 3 359 360 1 4 358 357 4 356 3 359 33 51 32 20 14 13 8 358 351 349 346 339 335 337 334 340 353 0 13 9 13 19 26 24 30 33 20 11 17 356 359 14 176 349 40 21 295 99 108 105 119 130 122 133 184 177 154 128 136 137 183 231 177 204 156 139 144 265 159
18 14 17 13 8 10 7 7 6 10 2 7 2 3 4 2 5 2 5 359 1 358 2 357 1 4 31 54 36 25 19 13 6 358 352 348 345 340 340 333 345 342 357 10 3 347 8 20 33 27 31 29 26 18 7 20 26 2 50 51 18 48 352 89 121 116 115 125 131 144 154 167 118 155 134 141 209 291 312 113 138 158 158 233 92
18 14 21 16 14 12 9 6 10 7 6 10 1 7 9 10 5 359 3 1 1 1 359 1 9 13 21 49 39 30 21 19 6 357 351 346 342 331 327 334 348 354 352 354 357 359 3 19 31 37 46 39 45 28 24 13 25 30 40 44 39 34 27 348 82 107 116 115 121 147 144 139 83 40 108 152 173 236 287 77 52 143 144 23 118
20 16 22 21 17 10 6 10 14 9 10 10 6 14 9 13 5 1 3 359 359 7 1 7 19 7 14 28 41 27 27 16 12 1 351 346 345 331 324 334 356 357 356 355 3 1 4 8 7 23 25 57 68 75 57 31 28 34 28 41 35 63 45 57 318 96 123 116 120 121 111 100 143 115 104 103 75 111 115 51 33 180 153 173 60
23 17 24 22 16 11 10 15 13 11 13 12 12 14 14 11 7 2 1 358 359 4 11 13 16 13 13 26 37 28 24 16 6 1 359 354 344 331 328 344 5 3 4 11 1 1 4 3 355 1 1 9 48 49 60 62 53 68 52 44 54 54 63 36 6 322 154 137 143 139 136 159 163 119 157 113 120 141 104 86 55 304 100 93 44
22 22 27 20 16 11 15 16 12 13 13 14 16 16 14 11 9 2 358 360 359 358 8 15 23 16 18 26 39 26 30 13 8 360 358 355 350 329 328 349 3 7 7 5 3 359 3 1 357 352 354 13 7 49 37 50 68 71 70 62 53 92 63 29 201 250 349 302 151 134 164 128 117 131 139 138 97 95 147 148 181 22 23 110 105
24 28 24 21 21 15 19 15 15 14 15 18 16 15 14 12 6 7 3 9 7 360 360 16 22 18 18 25 41 28 30 18 10 3 359 355 351 338 347 348 358 6 7 5 3 3 1 3 360 358 357 20 25 24 17 6 35 90 105 98 60 58 82 150 334 18 8 279 151 153 130 119 127 130 105 106 104 77 39 32 72 47 57 57 66
29 27 25 21 26 19 19 16 14 18 20 18 16 18 16 13 13 6 5 7 4 3 355 13 21 18 18 19 40 35 29 20 12 5 359 356 350 344 355 346 357 5 9 6 5 358 1 4 358 7 359 13 25 17 5 358 337 352 94 128 139 128 103 29 339 29 342 24 29 32 72 129 124 93 92 98 82 73 26 38 35 75 101 103 131
33 27 26 25 28 20 18 19 17 20 19 17 17 18 17 16 12 11 9 7 356 359 2 20 19 17 21 19 23 45 30 22 16 8 0 357 349 341 350 351 355 359 11 8 2 359 7 7 0 5 5 24 11 6 8 354 354 337 153 170 69 59 41 26 12 18 40 55 56 47 27 59 78 91 88 79 77 76 69 50 19 56 72 131 159
37 27 27 27 28 21 19 24 18 20 20 20 17 18 19 15 17 13 8 0 2 6 9 13 13 11 19 21 19 27 38 23 19 11 2 358 349 345 353 351 353 356 2 14 4 4 19 15 12 5 11 16 10 357 3 359 350 342 24 64 65 55 48 29 23 359 37 52 59 55 41 49 62 55 76 95 111 105 130 154 160 149 119 68 74
38 29 27 28 29 21 20 21 21 17 22 20 19 18 20 22 17 8 5 3 11 15 11 8 7 13 19 25 18 16 30 25 20 13 4 359 351 355 354 350 351 352 354 3 12 6 13 23 14 7 4 5 2 355 3 357 357 343 33 94 81 70 62 48 20 18 48 58 59 69 71 67 76 72 60 84 81 71 66 22 354 98 131 189 181
36 31 29 27 30 27 21 21 19 14 25 23 21 19 21 20 17 7 5 11 15 15 9 11 12 17 17 21 16 14 13 27 22 14 5 0 357 353 354 351 347 346 352 350 11 5 4 21 22 9 359 2 354 353 2 360 8 5 3 25 91 81 83 83 55 45 51 67 72 82 81 67 60 53 49 49 49 45 50 147 277 209 180 235 264
36 31 30 24 30 32 27 19 14 14 25 26 25 22 22 13 21 9 5 15 20 16 12 12 15 17 16 14 16 14 6 24 22 13 5 360 357 351 348 349 346 344 342 350 11 4 359 5 25 16 1 353 346 356 4 7 14 18 17 12 10 66 63 91 88 32 52 75 65 63 66 68 69 56 43 35 31 29 5 10 6 3 330 18 111
35 31 29 25 30 37 29 17 14 19 21 24 29 26 20 18 17 6 13 17 18 16 15 20 17 17 16 13 14 15 6 9 18 12 4 359 358 350 349 347 351 343 339 355 6 3 359 357 9 15 3 348 349 359 4 12 11 25 12 16 10 16 352 329 93 89 64 50 33 51 45 41 61 57 34 15 357 340 326 38 50 31 357 7 0
37 32 31 28 24 36 28 12 12 26 23 18 30 35 22 21 12 13 12 15 16 14 18 18 18 15 12 10 14 9 11 9 12 11 2 358 358 357 351 352 351 337 333 1 2 7 359 358 357 6 357 350 350 356 358 4 11 19 21 17 3 343 337 320 58 117 81 89 88 96 99 113 90 67 44 349 314 8 53 52 51 47 23 28 42
41 34 34 30 26 27 26 21 9 28 29 19 24 36 31 25 14 15 10 13 12 17 18 14 16 12 9 14 11 11 10 19 11 9 360 356 356 359 352 354 345 332 327 8 12 8 4 359 351 354 352 347 349 352 355 354 354 12 30 3 340 289 296 328 350 345 128 155 158 153 152 130 130 140 147 233 255 263 69 60 48 51 45 25 57
42 41 32 34 34 26 28 29 9 26 33 29 24 32 37 29 19 13 11 13 15 17 13 14 16 9 5 15 10 6 10 26 18 3 359 352 351 359 0 351 348 335 340 14 13 12 4 351 353 347 343 348 350 349 347 347 346 16 350 330 318 345 350 347 339 339 300 165 164 178 169 136 178 181 161 202 145 71 65 61 59 58 43 37 43
41 43 35 35 37 26 19 37 25 29 40 39 29 30 38 33 21 16 13 15 19 16 12 13 11 10 8 14 3 11 10 14 23 10 357 349 348 356 359 357 351 353 343 10 13 8 3 354 353 354 8 3 356 349 340 334 334 342 335 339 342 338 344 350 325 315 326 300 286 201 204 180 142 119 161 117 76 65 60 53 53 67 73 52 40
40 41 44 36 34 32 16 33 36 28 50 44 37 34 44 37 26 18 18 19 19 14 10 7 11 11 8 6 4 2 15 20 11 4 356 355 353 359 357 356 356 352 346 11 10 10 4 358 348 359 15 11 4 359 344 326 310 318 331 331 334 329 315 307 311 291 284 305 299 349 84 64 86 63 50 55 62 80 70 50 47 54 62 57 45
43 41 45 37 20 44 23 10 45 32 55 46 37 35 46 46 32 23 20 19 19 15 10 6 7 9 14 9 1 3 6 10 9 359 354 351 352 0 358 357 354 355 358 358 11 12 4 1 5 11 16 13 8 8 359 357 346 335 326 323 323 314 317 320 314 344 272 258 338 6 64 70 82 97 85 81 79 77 72 52 50 57 92 96 60
58 39 41 47 22 34 32 1 34 55 63 58 40 33 49 55 38 27 23 20 16 17 12 8 7 8 18 10 3 4 4 5 1 355 354 355 356 1 359 359 356 356 359 348 5 11 7 3 12 15 20 16 12 10 3 354 354 355 331 302 314 338 8 3 353 1 341 299 227 78 72 73 67 63 64 67 85 92 90 102 105 132 164 94 63
66 53 46 37 31 36 48 7 13 41 50 66 49 37 47 67 53 41 34 23 20 19 18 12 11 8 18 13 5 4 5 7 1 352 351 355 356 0 4 3 359 1 5 351 7 6 4 6 6 18 23 16 17 13 8 359 1 354 3 354 338 354 359 13 338 346 344 340 39 65 76 77 81 63 33 18 61 109 134 161 193 204 193 127 107
53 53 52 45 26 22 47 355 15 32 26 65 49 41 41 68 72 51 45 34 23 25 24 17 13 9 12 13 7 6 6 4 360 354 349 356 355 358 6 6 7 7 5 356 3 7 1 358 10 15 16 16 10 9 2 357 354 360 0 359 356 355 343 313 5 6 11 2 15 64 65 47 38 35 230 237 133 140 165 179 195 198 176 142 111
67 66 57 40 17 21 35 11 26 35 29 72 72 56 34 42 77 79 64 64 45 32 37 33 23 14 12 16 9 6 6 2 355 341 342 356 0 357 4 2 360 10 4 0 5 10 15 21 17 12 15 11 11 8 2 358 358 353 354 358 356 354 358 351 8 5 16 10 3 16 55 35 269 264 266 89 74 146 247 250 196 161 199 164 136
94 77 67 47 14 9 35 15 26 31 27 49 115 74 45 52 20 88 108 86 88 49 27 59 18 19 20 21 18 13 2 335 326 337 345 354 10 2 22 20 14 20 12 8 21 30 28 27 23 18 12 16 13 13 8 5 356 353 354 349 353 1 356 356 358 348 340 330 345 342 24 332 107 100 267 89 90 19 42 11 347 331 310 207 120
88 90 85 69 19 0 48 25 31 29 34 23 47 137 144 68 45 63 110 140 130 134 31 270 315 12 45 14 9 1 340 333 336 340 346 349 12 8 30 32 17 16 20 13 31 33 26 26 19 16 15 12 14 11 11 11 4 357 352 346 353 353 351 355 351 343 341 329 311 261 83 286 20 356 340 122 143 111 94 297 322 291 294 289 117
79 75 72 80 67 21 49 43 29 44 32 32 34 17 47 124 114 44 90 136 153 163 195 276 299 305 29 22 11 349 349 343 339 346 353 359 360 18 45 46 31 19 20 26 41 32 27 25 20 17 11 12 4 2 7 11 9 5 356 354 352 350 349 349 341 340 345 352 336 326 332 37 39 2 43 56 359 115 153 239 240 242 278 79 114
64 63 54 34 77 56 52 45 45 37 35 35 30 36 33 13 38 139 118 350 316 290 313 299 291 296 14 14 9 360 349 337 337 352 357 3 5 5 67 61 49 29 22 32 33 31 25 23 21 19 15 8 4 358 358 3 2 3 6 360 349 343 340 337 332 344 350 342 344 344 341 331 60 43 72 56 352 286 168 245 217 237 260 89 83
72 56 26 335 60 52 51 50 46 35 36 31 35 40 34 19 15 26 84 164 203 281 285 281 278 261 6 12 1 357 355 348 337 349 358 360 3 7 24 61 67 55 44 35 28 27 22 18 18 14 10 9 7 356 358 358 353 357 0 2 354 345 341 339 351 353 348 349 349 351 355 341 343 26 140 201 227 261 138 264 263 78 310 109 129
117 111 19 332 64 65 60 50 45 40 20 29 40 32 34 23 5 41 41 15 12 94 146 200 201 44 13 6 354 354 350 346 331 350 359 359 4 13 27 31 30 38 39 40 34 27 25 21 14 12 10 6 4 4 353 349 350 354 355 353 354 354 353 353 356 347 345 342 348 356 348 343 356 356 340 252 248 298 191 283 250 149 324 131 127
135 125 119 90 69 74 73 60 51 30 1 38 40 41 29 24 18 29 43 27 19 28 54 48 37 28 11 1 354 352 345 340 330 360 11 9 10 23 32 31 33 34 36 34 35 29 26 23 18 12 8 8 7 4 360 355 354 353 352 349 350 356 356 354 351 349 342 345 352 349 350 354 359 355 352 338 341 344 280 126 22 62 43 16 143
85 91 72 52 67 81 77 87 61 337 318 47 41 39 23 36 22 27 38 36 24 26 37 55 37 19 11 4 354 352 341 27 23 21 16 21 16 29 36 34 38 34 33 36 35 33 26 23 19 15 11 9 8 1 2 359 356 351 352 350 347 349 358 354 351 349 349 349 348 353 355 348 349 358 346 343 332 332 333 69 99 58 32 15 354
53 55 60 29 340 91 91 81 42 216 48 56 54 39 30 31 30 25 38 41 25 28 26 58 53 28 13 2 0 350 341 25 16 27 22 26 24 30 29 32 40 40 35 37 39 35 31 25 24 19 15 11 6 2 2 3 358 357 351 350 347 343 349 350 358 358 358 350 349 350 353 346 350 343 346 342 340 348 337 340 59 67 41 331 341
93 76 61 359 9 43 70 51 69 54 41 47 51 50 34 33 34 31 32 32 22 29 35 45 49 39 21 1 359 340 345 26 20 22 20 24 29 25 28 29 33 40 39 38 38 35 30 27 22 20 19 14 9 6 2 360 357 360 354 350 348 343 350 352 354 356 355 355 348 348 345 348 340 342 340 335 342 340 338 326 330 109 171 283 288
128 135 96 299 235 79 53 74 59 73 50 34 50 43 41 32 35 38 31 31 19 31 37 39 58 51 26 9 355 348 11 20 23 18 21 19 27 25 27 28 29 32 31 35 40 37 34 29 23 19 21 12 10 4 5 1 359 351 351 356 353 350 352 348 349 349 351 347 347 343 346 344 342 334 334 341 335 330 326 334 312 5 23 153 275
115 112 124 100 31 90 111 92 74 39 61 45 42 43 37 41 41 41 34 26 24 24 39 39 61 76 43 25 351 349 20 27 17 23 22 20 24 26 25 29 28 29 29 29 32 38 39 36 27 25 20 16 11 9 4 3 353 358 358 357 356 357 349 347 345 345 342 343 341 342 342 340 342 340 339 334 332 326 329 332 332 332 346 336 334
133 142 146 152 198 198 114 108 107 108 79 74 58 30 18 40 42 42 40 29 21 23 36 42 42 94 86 42 6 350 24 40 21 26 25 24 28 26 28 29 30 30 32 29 24 26 37 41 33 24 20 16 14 12 6 6 2 360 358 357 1 351 350 348 345 340 340 337 335 337 333 338 335 336 329 328 333 337 336 339 336 335 318 317 349
153 163 152 151 136 118 103 88 80 76 65 73 76 54 4 58 47 18 48 43 19 18 42 35 42 24 70 71 26 7 36 38 31 27 27 30 30 27 24 27 30 32 33 34 33 24 28 32 30 25 25 21 21 14 12 8 5 0 359 4 360 352 349 343 345 340 335 332 330 327 328 330 333 331 334 338 335 335 335 332 334 330 333 324 311
141 126 126 132 119 118 125 125 115 111 106 90 347 36 41 64 62 38 34 40 20 8 35 38 42 27 27 34 34 23 27 38 33 30 28 30 35 29 23 20 29 38 32 35 37 34 29 33 32 23 20 20 15 19 18 20 7 7 1 2 358 357 351 344 338 335 331 326 324 326 326 325 325 322 330 335 337 334 332 330 328 333 326 325 314
149 147 148 153 156 146 131 124 131 134 181 183 206 186 88 58 67 62 46 32 17 9 31 34 44 39 33 34 31 32 17 30 39 39 31 30 33 33 22 13 17 39 41 33 40 44 33 32 33 26 20 16 13 15 19 16 17 17 10 3 5 358 349 340 332 315 310 312 316 322 320 322 322 323 327 332 333 326 324 323 325 324 323 324 328
164 163 174 159 150 143 158 139 160 160 116 72 81 70 73 70 74 85 67 32 15 8 16 34 41 47 49 36 30 40 19 24 30 43 41 31 34 35 28 12 2 27 44 45 38 44 47 40 35 37 25 14 12 15 12 12 15 12 9 10 5 352 344 331 318 312 308 316 312 311 310 311 310 312 325 329 325 323 317 316 315 312 312 314 312
168 157 156 153 160 142 126 132 169 106 115 104 81 75 62 90 85 81 111 136 34 17 31 30 39 41 48 45 28 41 18 22 23 35 41 37 36 37 30 20 357 12 26 42 50 36 47 48 38 39 43 26 15 13 16 10 6 3 6 4 2 353 346 335 323 316 322 319 307 305 307 306 312 323 329 330 330 325 323 316 314 311 314 311 317
170 153 164 150 137 149 150 153 113 171 154 129 84 62 85 298 82 59 50 47 67 30 42 42 37 37 43 54 34 44 25 20 17 27 47 38 33 35 27 28 8 352 25 17 35 38 47 49 38 44 58 36 25 21 16 10 7 2 359 356 356 350 337 334 330 326 328 311 291 309 311 309 324 331 330 331 334 334 331 325 321 315 314 311 311
165 166 161 150 171 161 169 162 157 190 164 131 148 178 132 98 89 36 60 28 53 62 28 34 40 38 34 60 45 47 29 22 19 12 44 42 32 32 26 20 22 348 8 18 12 22 21 44 32 43 78 54 32 22 25 18 7 3 354 354 346 345 343 341 336 325 331 328 315 319 312 325 334 335 332 334 336 336 331 325 321 317 313 309 305
172 157 146 162 175 166 150 145 160 129 119 166 134 118 129 219 126 118 77 42 24 66 44 29 44 40 28 51 48 52 37 21 23 6 30 48 27 33 25 12 24 353 359 18 9 19 7 25 22 33 76 62 37 30 23 19 12 0 358 351 347 347 346 343 341 336 339 330 325 301 331 343 336 333 335 334 336 334 336 336 328 316 314 310 313
160 142 159 152 171 143 132 149 164 140 137 145 158 142 144 71 77 103 105 41 42 62 60 22 42 43 37 45 51 57 43 20 35 6 20 42 32 17 24 9 22 353 357 12 8 16 358 16 22 45 82 60 53 30 29 18 12 359 356 354 353 350 350 349 341 334 338 339 317 325 358 347 347 341 343 344 337 334 340 337 335 330 322 312 311